Simultaneous Nadir Overpasses (SNOs) Predictions

Prediction of SNOs between GOES-16 and TERRA Satellite Orbit:

Table of predicted SNOs for the next 14.0 days since TLE Epoch: 5/31/2019
Index Date Time (GOES-16) GOES-16 Lat,Lon TERRA Lat,Lon Distance(km) Time Diff (sec)
1 06/02/2019 15:20:47 -0.01, -75.21 -0.63, -72.35 325.04 80
2 06/03/2019 03:42:11 0.01, -75.20 -0.48, -77.54 266.25 80
3 06/05/2019 03:27:19 0.00, -75.20 0.14, -74.58 70.97 80
4 06/07/2019 03:15:07 -0.00, -75.21 0.77, -71.62 408.46 80
5 06/07/2019 15:36:22 0.01, -75.23 0.34, -76.78 176.34 80
6 06/09/2019 15:24:10 0.01, -75.24 -0.29, -73.82 161.79 80
7 06/10/2019 03:48:13 -0.01, -75.24 -0.82, -79.01 429.01 80
8 06/12/2019 03:36:02 -0.01, -75.26 -0.18, -76.05 89.95 80
9 06/14/2019 03:21:10 -0.01, -75.29 0.46, -73.09 249.74 80
10 06/14/2019 15:45:04 0.01, -75.31 0.66, -78.25 334.57 80




NCC Satellite Simultaneous Nadir Overpasses (SNOs) Prediction Service
